El Dorado, AR

9:22 AM CDT on June 28, 2017 (GMT -0500)
South Arkansas Regional At Goodwin

Weather History for KELD - March, 2014

Change the Weather History Date:

Saturday, March 29, 2014

  Actual Average Record
Temperature  
Mean Temperature 57 °F 59 °F  
Max Temperature 69 °F 72 °F 86 °F (1967)
Min Temperature 44 °F 47 °F 26 °F (1955)
Degree Days  
Heating Degree Days 8 7  
Month to date heating degree days 427 295  
Since 1 July heating degree days 3034 2523  
Cooling Degree Days 0 1  
Month to date cooling degree days 5 20  
Year to date cooling degree days 5 26  
Growing Degree Days 8 (Base 50)    
Moisture  
Dew Point 49 °F    
Average Humidity 66    
Maximum Humidity 100    
Minimum Humidity 32    
Precipitation  
Precipitation 0.01 in 0.15 in 3.25 in (1944)
Month to date precipitation 3.96 4.46  
Year to date precipitation 8.54 13.55  
Snow  
Snow 0.00 in - - ()
Month to date snowfall T  
Since 1 July snowfall 1.1  
Snow Depth 0.00 in    
Sea Level Pressure  
Sea Level Pressure 30.10 in    
Wind  
Wind Speed 8 mph (NNW)    
Max Wind Speed 20 mph    
Max Gust Speed 31 mph    
Visibility 10 miles    
Events Rain    
T = Trace of Precipitation, MM = Missing Value Source: NWS Daily Summary

Daily Weather History Graph

Daily Weather History Graph

Search for Another Location

Airport or City:

Trip Planner

Search our weather history database for the weather conditions in past years. The results will help you decide how hot, cold, wet, or windy it might be!

Date:

Astronomy

Mar. 29, 2014 Rise Set
Actual Time 7:02 AM CDT 7:29 PM CDT
Civil Twilight 6:38 AM CDT 7:54 PM CDT
Nautical Twilight 6:08 AM CDT 8:23 PM CDT
Astronomical Twilight 5:39 AM CDT 8:53 PM CDT
Moon 6:08 AM CDT (3/29) 6:36 PM CDT (3/29)
Length of Visible Light 13h 16m
Length of Day
12h 26m
Waning Crescent, 2% of the Moon is Illuminated
Mar 29
Waning Crescent
Mar 30
New
Apr 7
First Quarter
Apr 15
Full
Apr 22
Last Quarter

Hourly Weather History & Observations

Time (CDT) Temp. Dew Point Humidity Pressure Visibility Wind Dir Wind Speed Gust Speed Precip Events Conditions
12:11 AM 59.0 °F 59.0 °F 100% 29.94 in 10.0 mi West 6.9 mph - 0.00 in   Overcast
12:28 AM 59.0 °F 59.0 °F 100% 29.95 in 10.0 mi West 5.8 mph - 0.00 in   Overcast
12:53 AM 59.0 °F 59.0 °F 100% 29.95 in 10.0 mi West 3.5 mph - 0.00 in   Overcast
1:11 AM 59.0 °F 59.0 °F 100% 29.96 in 10.0 mi West 5.8 mph - N/A   Overcast
1:53 AM 59.0 °F 59.0 °F 100% 29.96 in 10.0 mi NW 6.9 mph - 0.00 in   Overcast
2:40 AM 57.0 °F 55.9 °F 96% 29.98 in 4.0 mi NNW 9.2 mph - 0.01 in Rain Light Rain
2:53 AM 55.9 °F 55.9 °F 100% 29.97 in 8.0 mi NNW 12.7 mph - 0.01 in   Overcast
3:14 AM 55.9 °F 55.0 °F 97% 29.99 in 9.0 mi NNW 11.5 mph - N/A   Overcast
3:53 AM 55.0 °F 54.0 °F 96% 29.99 in 10.0 mi NNW 10.4 mph - N/A   Overcast
4:44 AM 54.0 °F 53.1 °F 97% 30.01 in 10.0 mi NNW 9.2 mph - N/A   Overcast
4:53 AM 54.0 °F 53.1 °F 97% 30.01 in 10.0 mi NW 11.5 mph - N/A   Overcast
5:41 AM 54.0 °F 52.0 °F 93% 30.05 in 10.0 mi NNW 15.0 mph 21.9 mph N/A   Overcast
5:53 AM 54.0 °F 51.1 °F 90% 30.06 in 10.0 mi NNW 13.8 mph - N/A   Overcast
6:07 AM 53.1 °F 50.0 °F 89% 30.07 in 10.0 mi NNW 9.2 mph - N/A   Mostly Cloudy
6:16 AM 52.0 °F 50.0 °F 93% 30.07 in 10.0 mi NNW 9.2 mph - N/A   Scattered Clouds
6:53 AM 50.0 °F 48.9 °F 96% 30.09 in 10.0 mi NNW 3.5 mph - N/A   Clear
7:53 AM 51.1 °F 50.0 °F 96% 30.13 in 10.0 mi NW 6.9 mph - N/A   Clear
8:53 AM 55.0 °F 50.0 °F 83% 30.15 in 10.0 mi NNW 12.7 mph - N/A   Clear
9:53 AM 57.9 °F 50.0 °F 75% 30.17 in 10.0 mi NNW 12.7 mph 18.4 mph N/A   Clear
10:53 AM 60.1 °F 48.9 °F 67% 30.19 in 10.0 mi North 6.9 mph 18.4 mph N/A   Partly Cloudy
11:53 AM 63.0 °F 46.0 °F 54% 30.21 in 10.0 mi North 15.0 mph 23.0 mph N/A   Clear
12:53 PM 64.9 °F 45.0 °F 48% 30.20 in 10.0 mi NNW 12.7 mph - N/A   Partly Cloudy
1:53 PM 66.0 °F 43.0 °F 43% 30.19 in 10.0 mi NW 12.7 mph 19.6 mph N/A   Clear
2:53 PM 68.0 °F 42.1 °F 39% 30.18 in 10.0 mi NNE 8.1 mph - N/A   Partly Cloudy
3:53 PM 69.1 °F 41.0 °F 36% 30.17 in 10.0 mi NNW 13.8 mph 18.4 mph N/A   Clear
4:53 PM 69.1 °F 39.9 °F 35% 30.16 in 10.0 mi NW 11.5 mph - N/A   Clear
5:53 PM 68.0 °F 37.0 °F 32% 30.17 in 10.0 mi North 8.1 mph - N/A   Clear
6:53 PM 66.0 °F 39.0 °F 37% 30.18 in 10.0 mi NNE 5.8 mph - N/A   Clear
7:53 PM 55.0 °F 45.0 °F 69% 30.19 in 10.0 mi Calm Calm - N/A   Clear
8:53 PM 51.1 °F 44.1 °F 77% 30.21 in 10.0 mi Calm Calm - N/A   Clear
9:53 PM 48.9 °F 44.1 °F 83% 30.23 in 10.0 mi Calm Calm - N/A   Clear
10:53 PM 46.9 °F 43.0 °F 86% 30.23 in 10.0 mi Calm Calm - N/A   Clear
11:53 PM 46.0 °F 43.0 °F 89% 30.23 in 10.0 mi Calm Calm - N/A   Clear